User: anonymous   Login
Location: NJAA Observatory
(40.6819°N, 74.8979°W)
Time: 15:58:46
(UTC-04:00)
Language:

ALOS - Orbit

View from above orbital plane
View from above orbital plane
View from above satellite
View from above satellite

Ground track
Ground track

The orbit data is extracted from the following two-line orbital elements,

1 28931U 06002A   16152.51862689  .00000345  00000-0  77264-4 0  9993
2 28931  97.8864 192.0625 0002518  86.5484 273.6008 14.62193657551688
Epoch (UTC): 31 May 2016 12:26:49
Eccentricity: 0.0002518
inclination: 97.8864°
perigee height: 684 km
apogee height: 688 km
right ascension of ascending node: 192.0625°
argument of perigee: 86.5484°
revolutions per day: 14.62193657
mean anomaly at epoch: 273.6008°
orbit number at epoch: 55168

The dashed part of the orbit path shows where the satellite is in the earth's shadow,  

DLR